FENGYUN 1C DEB

Satellite information

Favourite Embed

Satellite Type and Status

DEBRISIN ORBIT

Key statistics

Satellite FENGYUN 1C DEB at a glance.

Uptime

9496

Days in orbit

Revolutions

≈ 14.2

Per day

Orbit

SSO

Sun Synchronous Orbit

Inclination

99.0

Latest

Satellite identification and parameters

Extended collection of information and parameters for FENGYUN 1C DEB.

Object identification

Identified? True

Debris? True

Object name: FENGYUN 1C DEB

International designator: 1999-025BQD

Object number (NORAD): 31325

Object ID (CCSDS): 31325

Country: PEOPLES REPUBLIC OF CHINA (PRC)

Current information (Y/N): Y

RCS size: SMALL

Orbital parameters

Period: 101.758 minutes

Inclination: 98.9902 deg

SMA: 7220.02 km

Apoapsis: 895.704 km

Periapsis: 788.065 km

RAAN: 220.1389 deg

Eccentricy: 0.0074542

Argument of periapsis: 122.923 deg

Mean anomaly: 237.9141 deg

Mean motion: 14.1512625 rev/day

Mean motion (dot): 0.00003815 rev/day2

B* drag term: 0.0019357 1/REarth

Two-line elements (TLE)

Creation date: May 9, 2025, 2:46 a.m.

Reference frame: TEME

Reference center: EARTH

Epoch: May 7, 2025, 11:39 p.m. UTC

TLE line 0: 0 FENGYUN 1C DEB

TLE line 1: 1 31325U 99025BQD 25127.98581810 .00003815 00000-0 19357-2 0 9990

TLE line 2: 2 31325 98.9902 220.1389 0074542 122.9230 237.9141 14.15126250566820

Live tracking on map

Real-time ground track for satellite FENGYUN 1C DEB.

In-orbit conjunctions

A list of the most updated potential collisions computed for object FENGYUN 1C DEB.

Target Orbit TCA Probability of collision Miss distance Type
CZ-6A DEB LEO 2025-03-05 06:26:51 0.0001098242 233.0 (m) DEBRIS
CZ-6A DEB LEO 2025-03-02 20:40:23 0.0001077158 344.0 (m) DEBRIS
COSMOS 651 LEO 2025-01-20 07:15:09 0.0001081634 391.0 (m) PAYLOAD
GGSE 3 LEO 2024-10-07 04:31:00 0.0002444307 102.0 (m) PAYLOAD

Associated space launch

Chinese polar orbiting meteorological satellite

FENGYUN 1C DEB was lifted into orbit during the mission ‘Long March 4B | Feng Yun 1C’, on board a Long March 4B space rocket.

The launch took place on May 10, 1999, 1:33 a.m. from Launch Complex 7.

For more information about the launch, click the button.

Launch to space Long March 4B | Feng Yun 1C
Long March 4B | Feng Yun 1C

Agency: N/A

Status: Launch Successful

Launch date: May 10, 1999, 1:33 a.m. UTC

Rocket: Long March 4B

Launch pad: Launch Complex 7

Location: Taiyuan Satellite Launch Center, People's Republic of China

...

Latest news about this satellite

There are no fresh news available about this satellite. Check back as we update our databases every day.


Newsletter sign-up

Weekly statistics, charts and insights to help you stay on top of the space industry.